[[{"header":{"parameterUnit":"m.s-1","parameterCategory":1,"la1":30.2991,"la2":30.254,"lo1":-89.0895,"lo2":-89.0444,"dy":0.0017,"dx":0.0017,"nx":28,"ny":28,"refTime":"2025-03-09T09:00:00:Z","depth":0,"parameterNumber":2,"parameterNumberName":"U-component_of_WINDS"},"data":[0,0,0,0,0,0,0,0,0,0,0,0,0,0,0,0,0,0,0,0,0,0,0,0,0,0,0,0,0,0,0,0,0,0,0,0,0,0,0,0,0,0,0,0,0,0,0,0,0,0,0,0,0,0,0,0,0,0,1.9881,1.988,0,1.9816,1.9815,1.9814,1.9738,1.9737,1.9736,1.9735,1.9667,1.9667,1.9666,0,0,0,0,0,0,0,0,0,0,0,0,0,1.9939,1.9938,1.9881,1.988,1.9879,1.9816,1.9815,1.9814,1.9739,1.9737,1.9736,1.9734,1.9668,1.9667,1.9666,0,0,0,0,0,0,0,0,0,0,0,0,0,1.9898,1.9938,1.9881,1.9834,1.9829,1.9816,1.9815,1.9814,1.9739,1.9737,1.9735,1.9734,1.9668,1.9667,1.9666,1.9694,0,0,1.9662,1.9662,0,0,0,0,0,0,0,0,1.99,1.9896,1.9841,1.9837,1.9831,1.9783,1.9811,1.9774,1.9739,1.9773,1.9735,1.9733,1.9707,1.9703,1.9694,1.969,1.9688,1.9662,1.9662,1.9661,1.9661,0,0,0,0,0,0,0,1.9903,1.9898,1.9855,1.9841,1.9835,1.9816,1.9808,1.9803,1.9751,1.977,1.9764,1.9758,1.9704,1.9696,1.9692,1.9687,1.9662,1.9661,1.9661,1.966,1.9703,1.9705,0,0,0,0,0,0,1.9913,1.9901,1.9857,1.9853,1.9862,1.9816,1.9807,1.9801,1.975,1.9741,1.9759,1.9754,1.9698,1.9694,1.969,1.972,1.9661,1.966,1.966,1.9701,1.9704,1.9706,0,0,0,0,0,0,1.9915,1.991,1.986,1.9875,1.9868,1.9817,1.981,1.98,1.9792,1.9742,1.9733,1.976,1.9697,1.9691,1.9694,1.9716,1.966,1.9659,1.9699,1.9702,1.9705,1.978,0,0,0,0,0,0,1.9917,1.9911,1.9921,1.9876,1.9867,1.9865,1.9811,1.98,1.979,1.9783,1.9741,1.9732,1.9695,1.9696,1.9693,1.9714,1.9658,1.9697,1.9701,1.9704,1.9775,1.9785,1.9793,0,0,0,0,0,1.9919,1.9944,1.9922,1.9917,1.9879,1.9866,1.9861,1.9818,1.9792,1.9802,1.9771,1.9733,1.9714,1.9696,1.9692,1.9714,1.9695,1.97,1.9704,1.9771,1.9783,1.9793,0,0,0,0,0,0,1.9993,1.9938,1.9912,1.9924,1.9901,1.9854,1.9865,1.9832,1.9815,1.981,1.9757,1.9748,1.9757,1.9735,1.9716,1.9738,1.97,1.9703,1.9752,1.9763,1.9772,1.9777,1.9657,0,0,0,0,0,2.001,2.0005,1.9957,1.9972,1.9962,1.9916,1.9909,1.9878,1.9851,1.9841,1.9809,1.9785,1.9774,1.9767,1.9754,1.9772,1.9762,1.9784,1.9793,1.9801,1.9804,1.9813,1.9823,1.9719,1.9719,1.9719,0,0,2.0047,2.0016,2.0016,1.9986,1.9964,1.996,1.9908,1.9905,1.9902,1.984,1.9841,1.9817,1.9786,1.9797,1.98,1.9779,1.9831,1.9806,1.9812,1.9812,1.9818,1.9828,1.9837,1.9722,1.9721,1.9721,0,0,2.0111,2.0087,2.0097,2.0077,2.0045,2.0014,2.0017,1.9975,1.9957,1.9957,1.9911,1.9906,1.9887,1.9867,1.9855,1.9913,1.9879,1.991,1.9957,1.9966,1.9974,1.9981,2.0003,2.0011,1.9914,1.9914,1.9914,0,2.016,2.0152,2.0106,2.0107,2.0096,2.0041,2.0051,2.0033,1.9999,1.9992,1.9969,1.9945,1.992,1.9926,1.9941,1.9932,1.9934,1.9915,1.9977,1.9984,1.9989,2.0009,2.0017,1.9918,1.9918,1.9917,1.9917,0,2.0215,2.021,2.0222,2.0191,2.018,2.0186,2.0141,2.0137,2.0107,2.0079,2.008,2.0049,2.0028,2.0027,1.9998,2.0029,2.0017,1.9987,1.9946,2.0004,2.0022,2.0029,1.9924,1.9923,1.9921,1.992,0,0,2.0323,2.0267,2.0272,2.0258,2.0219,2.0214,2.0218,2.0198,2.0196,2.0174,2.0176,2.0161,2.0133,2.0119,2.0087,2.0095,2.0144,2.0063,2.0062,2.008,2.0178,2.0202,2.0211,2.0121,2.0122,2.0123,2.018,0,2.0381,2.0384,2.0343,2.0357,2.0352,2.03,2.0303,2.028,2.0254,2.0246,2.0217,2.0208,2.0171,2.0162,2.0168,2.0137,2.0163,2.0132,2.0122,2.0123,2.0132,2.022,2.0245,2.0301,2.0187,2.0188,2.0189,0,2.0449,2.0431,2.0445,2.0406,2.0403,2.0406,2.0386,2.0379,2.0352,2.0332,2.0317,2.0281,2.0282,2.0244,2.0244,2.0224,2.0218,2.0202,2.0203,2.0201,2.016,2.0221,2.0317,2.0326,2.0199,2.0198,2.0198,0,2.0528,2.0508,2.0513,2.0502,2.0457,2.0461,2.0442,2.0413,2.0404,2.0386,2.038,2.0363,2.0353,2.034,2.0301,2.0277,2.0306,2.0264,2.029,2.0291,2.0299,2.0299,2.0396,2.0294,2.0294,2.0294,2.0294,0,2.0597,2.0607,2.0548,2.0552,2.0563,2.0516,2.0528,2.0504,2.0478,2.0477,2.043,2.043,2.0377,2.037,2.0339,2.0345,2.034,2.0325,2.0316,2.0329,2.0332,2.0325,2.032,2.0296,2.0296,2.0295,2.0295,0,2.0687,2.0648,2.0651,2.0608,2.0598,2.0607,2.0571,2.0572,2.0543,2.0542,2.0539,2.0494,2.0484,2.0443,2.0422,2.0401,2.0418,2.0401,2.0427,2.0422,2.045,2.0449,2.0547,2.0558,2.0449,2.045,2.0451,0,2.0734,2.0741,2.0699,2.0695,2.0679,2.0672,2.0663,2.0617,2.061,2.058,2.0586,2.0572,2.0559,2.0545,2.0511,2.0495,2.0478,2.0514,2.0475,2.0488,2.0479,2.048,2.0481,2.0522,2.0523,2.0525,2.0525,0,2.0822,2.0803,2.0792,2.0775,2.0765,2.0749,2.0731,2.073,2.0679,2.0673,2.0663,2.0652,2.0632,2.062,2.0599,2.0579,2.0545,2.0538,2.0543,2.0557,2.0572,2.0565,2.0451,2.0536,2.0535,2.0534,2.0533,2.0533,2.0893,2.0897,2.0868,2.0858,2.0839,2.0823,2.0823,2.0794,2.0785,2.0765,2.0739,2.0732,2.0705,2.0673,2.0656,2.065,2.0631,2.0638,2.064,2.0643,2.065,2.0573,2.0646,2.0646,2.0646,2.0645,2.0645,0,2.0979,2.0958,2.0949,2.0925,2.0917,2.0885,2.0863,2.0858,2.0853,2.083,2.0819,2.0807,2.0795,2.0759,2.0744,2.0746,2.0729,2.0743,2.0743,2.0739,2.0668,2.0665,2.0757,2.0757,2.0757,2.0757,2.0757,2.0757,2.1023,2.1029,2.1006,2.1003,2.0981,2.0975,2.0965,2.095,2.0932,2.0921,2.0911,2.0888,2.086,2.0842,2.083,2.0819,2.0816,2.0836,2.0821,2.0755,2.0744,2.0734,2.0731,2.0835,2.0835,2.0892,2.0893,2.0893]},{"header":{"parameterUnit":"m.s-1","parameterCategory":1,"la1":30.2991,"la2":30.254,"lo1":-89.0895,"lo2":-89.0444,"dy":0.0017,"dx":0.0017,"nx":28,"ny":28,"refTime":"2025-03-09T09:00:00:Z","depth":0,"parameterNumber":3,"parameterNumberName":"V-component_of_WINDS"},"data":[0,0,0,0,0,0,0,0,0,0,0,0,0,0,0,0,0,0,0,0,0,0,0,0,0,0,0,0,0,0,0,0,0,0,0,0,0,0,0,0,0,0,0,0,0,0,0,0,0,0,0,0,0,0,0,0,0,0,-2.1785,-2.1786,0,-2.189,-2.1891,-2.1892,-2.1918,-2.1917,-2.1917,-2.1916,-2.2019,-2.2022,-2.2025,0,0,0,0,0,0,0,0,0,0,0,0,0,-2.1605,-2.1608,-2.1785,-2.1786,-2.1788,-2.189,-2.1891,-2.1893,-2.1918,-2.1917,-2.1917,-2.1916,-2.2018,-2.2022,-2.2026,0,0,0,0,0,0,0,0,0,0,0,0,0,-2.1694,-2.161,-2.1785,-2.1813,-2.1817,-2.1889,-2.1891,-2.1893,-2.1918,-2.1917,-2.1916,-2.1916,-2.2016,-2.2021,-2.2026,-2.2077,0,0,-2.2042,-2.2044,0,0,0,0,0,0,0,0,-2.1689,-2.17,-2.1808,-2.1811,-2.1815,-2.189,-2.1865,-2.1955,-2.1919,-2.188,-2.1916,-2.1915,-2.1977,-2.1985,-2.2006,-2.2082,-2.2086,-2.2042,-2.2045,-2.2047,-2.2049,0,0,0,0,0,0,0,-2.1683,-2.1696,-2.1826,-2.1809,-2.1814,-2.182,-2.1831,-2.1882,-2.1932,-2.1883,-2.1885,-2.1897,-2.1978,-2.2002,-2.2009,-2.2088,-2.2042,-2.2046,-2.205,-2.2052,-2.2213,-2.2214,0,0,0,0,0,0,-2.1672,-2.1691,-2.1823,-2.183,-2.1749,-2.1824,-2.1837,-2.1867,-2.1932,-2.1941,-2.1898,-2.1898,-2.1993,-2.2003,-2.2013,-2.2078,-2.2047,-2.2052,-2.2055,-2.2211,-2.2213,-2.2214,0,0,0,0,0,0,-2.1668,-2.1684,-2.1819,-2.1761,-2.1779,-2.1828,-2.1862,-2.187,-2.1893,-2.1943,-2.1952,-2.1913,-2.1993,-2.2006,-2.2062,-2.2082,-2.2054,-2.2059,-2.221,-2.2212,-2.2213,-2.2207,0,0,0,0,0,0,-2.1663,-2.1682,-2.1702,-2.1761,-2.1782,-2.1867,-2.1863,-2.1872,-2.1902,-2.1903,-2.1959,-2.1968,-2.1993,-2.2054,-2.2067,-2.2088,-2.2063,-2.2208,-2.2211,-2.2213,-2.2206,-2.2209,-2.2211,0,0,0,0,0,-2.1656,-2.1695,-2.1703,-2.1719,-2.1808,-2.1868,-2.1879,-2.1909,-2.1903,-2.1924,-2.1957,-2.1966,-2.2078,-2.206,-2.2074,-2.2097,-2.2207,-2.221,-2.2213,-2.2205,-2.2208,-2.2211,0,0,0,0,0,0,-2.1635,-2.1703,-2.1713,-2.1772,-2.1814,-2.1872,-2.1899,-2.1912,-2.1955,-2.1954,-2.1988,-2.2001,-2.2055,-2.2082,-2.206,-2.2151,-2.2142,-2.2148,-2.2131,-2.2135,-2.2137,-2.2129,-2.2067,0,0,0,0,0,-2.1637,-2.1681,-2.1738,-2.1785,-2.1806,-2.1849,-2.1876,-2.1896,-2.194,-2.1958,-2.1994,-2.2036,-2.2081,-2.2109,-2.2153,-2.221,-2.2223,-2.2233,-2.2236,-2.2238,-2.2242,-2.2276,-2.2281,-2.2223,-2.2223,-2.2223,0,0,-2.1642,-2.1685,-2.171,-2.1782,-2.1817,-2.1861,-2.1863,-2.1909,-2.1942,-2.1964,-2.202,-2.2049,-2.2098,-2.2155,-2.2182,-2.2179,-2.2261,-2.2242,-2.2243,-2.2246,-2.2279,-2.2285,-2.2289,-2.2225,-2.2225,-2.2225,0,0,-2.1673,-2.171,-2.1754,-2.179,-2.1844,-2.1873,-2.1883,-2.194,-2.1961,-2.2018,-2.2036,-2.2075,-2.2151,-2.2186,-2.2213,-2.2261,-2.2271,-2.2274,-2.2287,-2.232,-2.2324,-2.2328,-2.2346,-2.2352,-2.2279,-2.2279,-2.2279,0,-2.1672,-2.174,-2.1774,-2.1821,-2.1852,-2.1876,-2.192,-2.1953,-2.2018,-2.2038,-2.2035,-2.2132,-2.2167,-2.2233,-2.2245,-2.2267,-2.228,-2.2267,-2.2321,-2.2326,-2.233,-2.2347,-2.2353,-2.2279,-2.2279,-2.2279,-2.2279,0,-2.1736,-2.1784,-2.1812,-2.1877,-2.1911,-2.1956,-2.1996,-2.2027,-2.2045,-2.2074,-2.2132,-2.2175,-2.2229,-2.2247,-2.2263,-2.2316,-2.2312,-2.2314,-2.2306,-2.2335,-2.2352,-2.2358,-2.2279,-2.2279,-2.2279,-2.2279,0,0,-2.1755,-2.184,-2.185,-2.188,-2.1943,-2.198,-2.2026,-2.2081,-2.2107,-2.2151,-2.2191,-2.2256,-2.226,-2.2291,-2.2312,-2.234,-2.2376,-2.2339,-2.2341,-2.2345,-2.2438,-2.2436,-2.2443,-2.2384,-2.2385,-2.2387,-2.2434,0,-2.1794,-2.1879,-2.1912,-2.1981,-2.2026,-2.2051,-2.2092,-2.2134,-2.2163,-2.2205,-2.2236,-2.2283,-2.2283,-2.2302,-2.2332,-2.2366,-2.2395,-2.2363,-2.2421,-2.2422,-2.2407,-2.2451,-2.2449,-2.2491,-2.244,-2.2442,-2.2442,0,-2.185,-2.1898,-2.1972,-2.2032,-2.2052,-2.2088,-2.2141,-2.2181,-2.223,-2.2249,-2.2286,-2.2306,-2.2356,-2.2346,-2.2414,-2.2391,-2.2417,-2.2438,-2.244,-2.2446,-2.2433,-2.2458,-2.2505,-2.2511,-2.2453,-2.2452,-2.2451,0,-2.1857,-2.1939,-2.1995,-2.202,-2.2091,-2.2116,-2.2146,-2.2194,-2.2226,-2.2273,-2.2293,-2.2345,-2.2372,-2.2411,-2.2445,-2.2434,-2.2511,-2.2503,-2.2527,-2.2527,-2.2541,-2.254,-2.2593,-2.2559,-2.2559,-2.2558,-2.2558,0,-2.1896,-2.1941,-2.1999,-2.2033,-2.2084,-2.2122,-2.2171,-2.2203,-2.2246,-2.2287,-2.2311,-2.2348,-2.239,-2.2433,-2.2459,-2.2512,-2.2525,-2.2541,-2.2547,-2.2539,-2.2537,-2.2555,-2.2553,-2.256,-2.256,-2.256,-2.2559,0,-2.1911,-2.1952,-2.2014,-2.2077,-2.2094,-2.2129,-2.2182,-2.2216,-2.2248,-2.2299,-2.2313,-2.2362,-2.2413,-2.2451,-2.2517,-2.2535,-2.2592,-2.2598,-2.2576,-2.2579,-2.2601,-2.2599,-2.2668,-2.2679,-2.2638,-2.2638,-2.2638,0,-2.1933,-2.1969,-2.2036,-2.2066,-2.2097,-2.2144,-2.2178,-2.2217,-2.225,-2.231,-2.2337,-2.2391,-2.2436,-2.2518,-2.2558,-2.2609,-2.2617,-2.2638,-2.2625,-2.2615,-2.2617,-2.2615,-2.2619,-2.2639,-2.264,-2.264,-2.264,0,-2.1969,-2.1988,-2.2036,-2.2091,-2.213,-2.2175,-2.222,-2.2243,-2.229,-2.2327,-2.2381,-2.2416,-2.2486,-2.2539,-2.2595,-2.2625,-2.264,-2.2644,-2.2653,-2.2644,-2.2629,-2.2638,-2.2581,-2.2642,-2.2642,-2.2642,-2.2642,-2.2641,-2.1988,-2.2021,-2.2075,-2.2128,-2.2166,-2.2209,-2.2244,-2.2282,-2.2328,-2.2389,-2.2409,-2.2465,-2.2515,-2.2592,-2.2624,-2.2668,-2.2667,-2.2679,-2.2682,-2.2684,-2.2684,-2.2623,-2.2678,-2.2678,-2.2678,-2.2678,-2.2678,0,-2.2025,-2.2062,-2.211,-2.2174,-2.2215,-2.2229,-2.228,-2.2314,-2.2364,-2.241,-2.2455,-2.2518,-2.2571,-2.2617,-2.2671,-2.2698,-2.2706,-2.2711,-2.2709,-2.2716,-2.2681,-2.2669,-2.2703,-2.2703,-2.2703,-2.2703,-2.2703,-2.2703,-2.2049,-2.2106,-2.2132,-2.2209,-2.2245,-2.2302,-2.2331,-2.237,-2.2407,-2.2478,-2.2522,-2.2553,-2.2599,-2.2658,-2.2707,-2.2719,-2.2737,-2.274,-2.2754,-2.2721,-2.2718,-2.2715,-2.2703,-2.2744,-2.2744,-2.2784,-2.2785,-2.2785]}]]